Home > Weather > Ghent > Past weeks

Flag for Belgium Weather for the Past 2 Weeks in Ghent, Belgium

Now
41 °F

Quite cool.


Feels Like: 39 °F
Forecast: 35 / 43 °F
Wind: 3 mph from Southwest

Location: Munte

Current Time: Feb 11, 2016 at 12:47:01 PM

Latest Report: Feb 11, 2016 at 12:00 PM


Visibility: 7 mi

Pressure: 29.71 "Hg

Humidity: 91%

Dew point: 38 °F

Location of GhentLocation

Historic Weather in Ghent — Graph

°F

Ghent Temperature Yesterday

Maximum temperature yesterday: 43 °F (at 1:00 PM)
Minimum temperature yesterday: 37 °F (at 3:00 AM)
Average temperature yesterday: 40 °F

High & Low Weather Summary for the Past Weeks

 TemperatureHumidityPressure
High54 °F (Jan 31, 10:00 PM)100% (Feb 5, 7:00 AM)30.35 "Hg (Feb 5, 7:00 AM)
Low34 °F (Feb 11, 7:00 AM)54% (Jan 28, 4:00 PM)29.00 "Hg (Feb 9, 12:00 PM)
Average45 °F85%29.85 "Hg
* Reported Jan 27 11:00 AM — Feb 11 11:00 AM, Ghent, Weather by CustomWeather, © 2016

Note: Actual official high and low records may vary slightly from our data, if they occured in-between our weather recording intervals... More about our weather records

Advertising

Ghent Weather History for the Previous 24 Hours

 ConditionsComfort  
Time TempWeatherWind HumidityBarometerVisibility
11:00 AM
Thu, Feb 11
39 °FChilly.3 mph93%29.71 "Hg8 mi
10:00 AM36 °FChilly.2 mph97%29.71 "Hg5 mi
9:00 AM35 °FChilly.2 mph95%29.70 "Hg6 mi
8:00 AM34 °FChilly.N/A96%29.69 "Hg5 mi
7:00 AM34 °FChilly.2 mph95%29.68 "Hg6 mi
6:00 AM34 °FChilly.2 mph93%29.68 "Hg7 mi
5:00 AM35 °FChilly.2 mph92%29.67 "Hg7 mi
4:00 AM36 °FChilly.2 mph91%29.67 "Hg8 mi
2:00 AM39 °FChilly.3 mph93%29.65 "Hg7 mi
1:00 AM38 °FChilly.3 mph93%29.64 "Hg8 mi
10:00 PM
Wed, Feb 10
38 °FChilly.2 mph94%29.60 "Hg7 mi
9:00 PM39 °FChilly.2 mph93%29.58 "Hg9 mi
8:00 PM40 °FQuite cool.2 mph96%29.57 "Hg7 mi
7:00 PM41 °FQuite cool.3 mph96%29.54 "Hg9 mi
6:00 PM40 °FQuite cool.3 mph97%29.50 "Hg11 mi
5:00 PM41 °FRain. Cloudy.5 mph92%29.47 "Hg5 mi
4:00 PM43 °FLight rain. Cloudy.3 mph86%29.44 "Hg9 mi
3:00 PM42 °FLight rain. Cloudy.5 mph85%29.44 "Hg11 mi
2:00 PM42 °FQuite cool.3 mph87%29.41 "Hg12 mi
1:00 PM43 °FLight rain. Cloudy.3 mph84%29.38 "Hg9 mi
12:00 PM43 °FQuite cool.6 mph83%29.38 "Hg12 mi
Weather by CustomWeather, © 2016

See weather overviewHow to use our weather pages